Change the Weather History Date:

Monday, November 11, 2013

  Actual Average Record
Temperature  
Mean Temperature 48 °F -  
Max Temperature 53 °F 47 °F 57 °F (2003)
Min Temperature 44 °F 35 °F 28 °F (2000)
Degree Days  
Heating Degree Days 16    
Moisture  
Dew Point 42 °F    
Average Humidity 80    
Maximum Humidity 93    
Minimum Humidity 62    
Precipitation  
Precipitation 0.00 in 0.19 in - ()
Sea Level Pressure  
Sea Level Pressure 30.13 in    
Wind  
Wind Speed 5 mph ()    
Max Wind Speed 8 mph    
Max Gust Speed -    
Averages and records for this station are not official NWS values.
T = Trace of Precipitation, MM = Missing Value Source: Averaged Metar Reports

Daily Weather History Graph

Daily Weather History Graph

Search for Another Location

Airport or City:

Trip Planner

Search our weather history database for the weather conditions in past years. The results will help you decide how hot, cold, wet, or windy it might be!

Date:

Astronomy

Nov. 11, 2013 Rise Set
Actual Time 7:16 AM PST 4:38 PM PST
Civil Twilight 6:42 AM PST 5:12 PM PST
Nautical Twilight 6:04 AM PST 5:50 PM PST
Astronomical Twilight 5:27 AM PST 6:27 PM PST
Moon 1:48 PM PST (11/11) 12:38 AM PST (11/11)
Length of Visible Light 10h 30m
Length of Day
9h 22m
Waxing Gibbous, 67% of the Moon is Illuminated
Nov 11
Waxing Gibbous
Nov 17
Full
Nov 25
Last Quarter
Dec 2
New
Dec 9
First Quarter

Hourly Weather History & Observations

Time (PST) Temp. Windchill Dew Point Humidity Pressure Visibility Wind Dir Wind Speed Gust Speed Precip Events Conditions
12:00 AM 46.4 °F 42.4 °F 42.8 °F 87% 30.18 in 30.0 mi WNW 8.1 mph - N/A   Overcast
1:00 AM 46.4 °F 42.9 °F 42.8 °F 87% 30.18 in 30.0 mi WNW 6.9 mph - N/A   Overcast
2:00 AM 46.4 °F 42.4 °F 41.0 °F 81% 30.18 in 30.0 mi WNW 8.1 mph - N/A   Overcast
3:00 AM 46.4 °F 42.9 °F 41.0 °F 81% 30.17 in 30.0 mi NW 6.9 mph - N/A   Overcast
4:00 AM 46 °F - 42 °F 79% 30.18 in 28 mi NW 6.9 mph - -   Overcast
4:00 AM 46.4 °F 42.9 °F 41.0 °F 81% 30.18 in 30.0 mi WNW 6.9 mph - N/A   Overcast
5:00 AM 46.4 °F 42.9 °F 42.8 °F 87% 30.17 in 30.0 mi West 6.9 mph - N/A   Overcast
6:00 AM 46.4 °F 42.9 °F 41.0 °F 81% 30.19 in 30.0 mi WNW 6.9 mph - N/A   Overcast
7:00 AM 46.4 °F 42.4 °F 41.0 °F 81% 30.19 in 30.0 mi NW 8.1 mph - N/A   Mostly Cloudy
8:00 AM 44.6 °F - 41.0 °F 87% 30.18 in 30.0 mi West 2.3 mph - N/A   Mostly Cloudy
9:00 AM 46.4 °F 43.5 °F 42.8 °F 87% 30.19 in 30.0 mi NW 5.8 mph - N/A   Overcast
10:00 AM 48 °F - 42 °F 73% 30.19 in 28 mi WNW 3.5 mph - -   Overcast
10:00 AM 48.2 °F - 42.8 °F 82% 30.18 in 30.0 mi West 3.5 mph - N/A   Overcast
11:00 AM 50.0 °F - 41.0 °F 71% 30.17 in 30.0 mi WNW 4.6 mph - N/A   Overcast
12:00 PM 50.0 °F - 42.8 °F 76% 30.16 in 30.0 mi NW 5.8 mph - N/A   Overcast
1:00 PM 53.6 °F - 41.0 °F 62% 30.13 in 30.0 mi North 6.9 mph - N/A   Mostly Cloudy
2:00 PM 51.8 °F - 39.2 °F 62% 30.12 in 30.0 mi NE 4.6 mph - N/A   Mostly Cloudy
3:00 PM 51.8 °F - 41.0 °F 67% 30.10 in 30.0 mi WNW 5.8 mph - N/A   Overcast
4:00 PM 50 °F - 42 °F 64% 30.08 in 28 mi NNW 4.6 mph - -   Overcast
4:00 PM 50.0 °F - 41.0 °F 71% 30.08 in 30.0 mi NNW 5.8 mph - N/A   Overcast
5:00 PM 44.6 °F 43.1 °F 41.0 °F 87% 30.06 in 30.0 mi WSW 3.5 mph - N/A   Overcast
6:00 PM 48.2 °F - 41.0 °F 76% 30.05 in 30.0 mi West 3.5 mph - N/A   Overcast
7:00 PM 46.4 °F 42.9 °F 42.8 °F 87% 30.04 in 30.0 mi WSW 6.9 mph - N/A   Overcast
8:00 PM 48.2 °F - 42.8 °F 82% 30.03 in 30.0 mi WSW 5.8 mph - N/A   Overcast
9:00 PM 46.4 °F 44.3 °F 42.8 °F 87% 30.04 in 30.0 mi WSW 4.6 mph - N/A   Overcast
10:00 PM 47 °F - 43 °F 82% 30.03 in 28 mi West 3.5 mph - -   Overcast
10:00 PM 46.4 °F 44.3 °F 42.8 °F 87% 30.03 in 30.0 mi West 4.6 mph - N/A   Overcast
11:00 PM 46.4 °F 43.5 °F 44.6 °F 93% 30.02 in 30.0 mi West 5.8 mph - N/A   Overcast